Baker, OR

6:27 PM PDT on October 16, 2017 (GMT -0700)
Baker City Municipal

Weather History for KBKE - April, 2012

Change the Weather History Date:

Tuesday, April 24, 2012

  Actual Average Record
Temperature  
Mean Temperature 61 °F 45 °F  
Max Temperature 77 °F 60 °F 89 °F (1977)
Min Temperature 44 °F 30 °F 14 °F (2002)
Degree Days  
Heating Degree Days 4 20  
Month to date heating degree days 483 532  
Since 1 July heating degree days 6445 6900  
Cooling Degree Days 0 0  
Month to date cooling degree days 0 0  
Year to date cooling degree days 0 0  
Growing Degree Days 10 (Base 50)    
Moisture  
Dew Point 48 °F    
Average Humidity 60    
Maximum Humidity 92    
Minimum Humidity 27    
Precipitation  
Precipitation 0.07 in 0.03 in 0.33 in (1994)
Month to date precipitation 0.82 0.64  
Year to date precipitation 2.48 2.84  
Sea Level Pressure  
Sea Level Pressure 29.82 in    
Wind  
Wind Speed 6 mph (West)    
Max Wind Speed 21 mph    
Max Gust Speed 28 mph    
Visibility 10 miles    
Events Rain , Thunderstorm    
T = Trace of Precipitation, MM = Missing Value Source: NWS Daily Summary

Daily Weather History Graph

Daily Weather History Graph

Search for Another Location

Airport or City:

Trip Planner

Search our weather history database for the weather conditions in past years. The results will help you decide how hot, cold, wet, or windy it might be!

Date:

Astronomy

Apr. 24, 2012 Rise Set
Actual Time 5:50 AM PDT 7:48 PM PDT
Civil Twilight 5:19 AM PDT 8:20 PM PDT
Nautical Twilight 4:40 AM PDT 8:58 PM PDT
Astronomical Twilight 3:58 AM PDT 9:41 PM PDT
Moon 7:43 AM PDT (4/24) 11:18 PM PDT (4/24)
Length of Visible Light 15h 00m
Length of Day
13h 57m
Waxing Crescent, 11% of the Moon is Illuminated
Apr 24
Waxing Crescent
Apr 29
First Quarter
May 5
Full
May 12
Last Quarter
May 20
New

Hourly Weather History & Observations

Time (PDT) Temp. Windchill Dew Point Humidity Pressure Visibility Wind Dir Wind Speed Gust Speed Precip Events Conditions
12:53 AM 60.1 °F - 48.0 °F 64% 29.86 in 10.0 mi NNW 15.0 mph - N/A   Scattered Clouds
1:53 AM 57.0 °F - 46.9 °F 69% 29.86 in 10.0 mi Calm Calm - N/A   Clear
2:53 AM 55.0 °F - 46.9 °F 74% 29.85 in 10.0 mi WNW 6.9 mph - N/A   Clear
3:53 AM 52.0 °F - 46.9 °F 83% 29.86 in 10.0 mi South 3.5 mph - N/A   Clear
4:53 AM 51.8 °F - 46.4 °F 82% 29.91 in 10.0 mi SSE 6.9 mph - N/A   Clear
5:53 AM 44.1 °F 42.5 °F 43.0 °F 96% 29.87 in 10.0 mi NE 3.5 mph - N/A   Clear
6:53 AM 48.9 °F - 45.0 °F 86% 29.86 in 10.0 mi Calm Calm - N/A   Clear
7:53 AM 57.9 °F - 48.0 °F 70% 29.86 in 10.0 mi SSW 9.2 mph - N/A   Clear
8:53 AM 64.0 °F - 48.0 °F 56% 29.84 in 10.0 mi Calm Calm - N/A   Partly Cloudy
9:53 AM 66.0 °F - 53.1 °F 63% 29.86 in 10.0 mi NNE 6.9 mph - N/A   Mostly Cloudy
10:53 AM 69.1 °F - 51.1 °F 53% 29.85 in 10.0 mi Calm Calm - N/A   Clear
11:53 AM 70.0 °F - 48.9 °F 47% 29.83 in 10.0 mi SSE 3.5 mph - N/A   Scattered Clouds
12:53 PM 73.9 °F - 44.1 °F 34% 29.80 in 10.0 mi Calm Calm - N/A   Mostly Cloudy
1:26 PM 69.8 °F - 51.8 °F 53% 29.86 in 10.0 mi NNE 8.1 mph - N/A Thunderstorm Thunderstorm
1:41 PM 69.8 °F - 48.2 °F 46% 29.85 in 5.0 mi SW 8.1 mph 24.2 mph 0.07 in Rain Heavy Rain
1:53 PM 71.1 °F - 45.0 °F 39% 29.79 in 10.0 mi Variable 3.5 mph - 0.07 in Rain , Thunderstorm Light Rain
2:13 PM 71.6 °F - 51.8 °F 50% 29.84 in 10.0 mi NNE 9.2 mph - N/A   Clear
2:53 PM 72.0 °F - 48.0 °F 43% 29.78 in 10.0 mi Calm Calm - N/A   Partly Cloudy
3:53 PM 73.0 °F - 39.9 °F 30% 29.75 in 10.0 mi SW 12.7 mph 21.9 mph N/A   Clear
4:53 PM 75.9 °F - 41.0 °F 29% 29.73 in 10.0 mi WSW 11.5 mph - N/A   Clear
5:53 PM 75.9 °F - 39.9 °F 27% 29.74 in 10.0 mi WSW 8.1 mph - N/A   Clear
6:53 PM 68.0 °F - 51.1 °F 55% 29.74 in 10.0 mi WNW 12.7 mph 19.6 mph N/A   Clear
7:53 PM 62.1 °F - 52.0 °F 70% 29.76 in 10.0 mi NNW 16.1 mph 25.3 mph N/A   Clear
8:53 PM 59.0 °F - 51.1 °F 75% 29.78 in 10.0 mi NW 13.8 mph 20.7 mph N/A   Clear
9:53 PM 57.9 °F - 50.0 °F 75% 29.80 in 10.0 mi West 9.2 mph - N/A   Clear
10:53 PM 55.9 °F - 50.0 °F 80% 29.81 in 10.0 mi WNW 10.4 mph - N/A   Clear
11:53 PM 55.0 °F - 48.0 °F 77% 29.83 in 10.0 mi West 5.8 mph - N/A   Clear